GW1761 Weather Reports


time (UTC)temp
C
wind
direction
speed
KPH
gust
KPH
rain 1hr
cm
rain 24hr
cm
rain mn
cm
humidity
%
barometer
mb
20260906203004 31 360 16.1 29.0 0.00 0.00 0.00 46 1006.1
20260906201524 31 360 12.9 27.4 0.00 0.00 0.00 48 1006.4
20260906200031 31 360 12.9 33.8 0.00 0.00 0.00 50 1006.6
20260906194539 31 360 12.9 32.2 0.00 0.00 0.00 50 1006.8
20260906193056 30 360 16.1 30.6 0.00 0.00 0.00 50 1007.0
20260906191512 30 360 16.1 29.0 0.00 0.00 0.00 50 1007.1
20260906190028 30 360 11.3 30.6 0.00 0.00 0.00 49 1007.2
20260906184550 30 360 17.7 27.4 0.00 0.00 0.00 50 1007.1
20260906183006 30 360 9.7 30.6 0.00 0.00 0.00 50 1007.5
20260906181512 29 360 12.9 32.2 0.00 0.00 0.00 53 1007.7
20260906180016 28 360 16.1 33.8 0.00 0.00 0.00 57 1008.0
20260906174524 28 360 14.5 25.7 0.00 0.00 0.00 56 1008.3
20260906173025 28 360 12.9 33.8 0.00 0.00 0.00 57 1008.4
20260906171532 27 360 12.9 29.0 0.00 0.00 0.00 61 1008.7
20260906170037 27 360 14.5 35.4 0.00 0.00 0.00 61 1008.8
20260906164546 27 360 20.9 38.6 0.00 0.00 0.00 61 1009.0
20260906163039 26 360 20.9 32.2 0.00 0.00 0.00 65 1009.2
20260906161542 25 360 19.3 29.0 0.00 0.00 0.00 66 1009.1
20260906160050 25 360 19.3 29.0 0.00 0.00 0.00 70 1008.9
20260906154602 24 360 16.1 29.0 0.00 0.00 0.00 77 1009.1
20260906153016 23 360 16.1 25.7 0.00 0.00 0.00 81 1009.0
20260906151530 22 360 19.3 29.0 0.00 0.00 0.00 83 1009.2
20260906150059 21 360 20.9 30.6 0.00 0.00 0.00 85 1009.3
20260906144553 21 360 16.1 32.2 0.00 0.00 0.00 87 1009.1
20260906143110 21 360 16.1 25.7 0.00 0.00 0.00 89 1009.1
20260906141503 20 360 11.3 20.9 0.00 0.00 0.00 92 1009.0
20260906140025 20 360 9.7 16.1 0.00 0.00 0.00 94 1008.8
20260906134530 19 360 9.7 17.7 0.00 0.00 0.00 95 1008.6
20260906133025 18 360 8.0 16.1 0.00 0.00 0.00 94 1008.2
20260906131540 18 360 8.0 19.3 0.00 0.00 0.00 94 1008.3
20260906130054 18 360 6.4 12.9 0.00 0.00 0.00 94 1008.3
20260906124555 18 360 6.4 12.9 0.00 0.00 0.00 94 1008.3
20260906123001 18 360 6.4 16.1 0.00 0.00 0.00 94 1008.3
20260906121520 18 360 6.4 14.5 0.00 0.00 0.00 93 1008.4
20260906120038 18 360 4.8 12.9 0.00 0.00 0.00 93 1008.3
20260906114602 18 360 6.4 17.7 0.00 0.00 0.00 93 1008.5
20260906113049 18 360 11.3 20.9 0.00 0.00 0.00 92 1008.5
20260906111507 18 360 9.7 17.7 0.00 0.00 0.00 91 1008.5
20260906110024 18 360 9.7 16.1 0.00 0.00 0.00 90 1008.5
20260906104546 18 360 4.8 9.7 0.00 0.00 0.00 89 1008.4
20260906103101 19 360 3.2 9.7 0.00 0.00 0.00 88 1008.3
20260906101522 19 360 0.0 4.8 0.00 0.00 0.00 86 1008.0
20260906100029 20 360 0.0 3.2 0.00 0.00 0.00 85 1007.8
20260906094545 20 360 1.6 6.4 0.00 0.00 0.00 84 1007.6
20260906093046 21 360 3.2 8.0 0.00 0.00 0.00 80 1007.7
20260906091552 22 360 3.2 8.0 0.00 0.00 0.00 74 1007.5
20260906090001 22 360 4.8 8.0 0.00 0.00 0.00 73 1007.5
20260906084523 22 360 4.8 17.7 0.00 0.00 0.00 74 1007.8
20260906083029 22 360 1.6 12.9 0.00 0.00 0.00 73 1007.2
20260906081534 22 360 6.4 16.1 0.00 0.00 0.00 72 1006.8
20260906080058 22 360 4.8 9.7 0.00 0.00 0.00 73 1006.8
20260906074522 22 360 3.2 8.0 0.00 0.00 0.00 73 1007.0
20260906073036 22 360 3.2 8.0 0.00 0.00 0.00 73 1007.0
20260906071505 22 360 4.8 12.9 0.00 0.00 0.00 73 1006.8
20260906070021 22 360 6.4 14.5 0.00 0.00 0.00 73 1006.9
20260906064514 22 360 4.8 17.7 0.00 0.00 0.00 73 1006.9
20260906063011 22 360 11.3 16.1 0.00 0.00 0.00 73 1007.1
20260906061531 22 360 8.0 14.5 0.00 0.00 0.00 72 1006.7
20260906060035 22 360 6.4 16.1 0.00 0.00 0.00 72 1006.5
20260906054625 22 360 6.4 14.5 0.00 0.00 0.00 72 1006.2
20260906053019 22 360 4.8 12.9 0.00 0.00 0.00 72 1006.1
20260906051528 22 360 8.0 14.5 0.00 0.00 0.00 71 1006.1
20260906050041 23 360 4.8 8.0 0.00 0.00 0.00 70 1006.2
20260906044549 23 360 4.8 12.9 0.00 0.00 0.00 69 1006.1
20260906043100 23 360 3.2 9.7 0.00 0.00 0.00 67 1006.4
20260906041517 24 360 6.4 9.7 0.00 0.00 0.00 67 1006.4
20260906040045 24 360 4.8 9.7 0.00 0.00 0.00 65 1006.3
20260906034553 25 360 3.2 12.9 0.00 0.00 0.00 64 1006.4
20260906033108 25 360 6.4 17.7 0.00 0.00 0.00 62 1006.2
20260906031552 25 360 6.4 14.5 0.00 0.00 0.00 60 1006.3
20260906030039 26 360 11.3 25.7 0.00 0.00 0.00 58 1006.2
20260906024600 26 360 9.7 20.9 0.00 0.00 0.00 58 1006.0
20260906023007 27 360 11.3 25.7 0.00 0.00 0.00 56 1005.7
20260906021517 28 360 9.7 19.3 0.00 0.00 0.00 54 1005.6
20260906020035 28 360 9.7 20.9 0.00 0.00 0.00 54 1005.6
20260906014556 28 360 3.2 8.0 0.00 0.00 0.00 53 1005.5
20260906013003 28 360 3.2 4.8 0.00 0.00 0.00 50 1005.5
20260906011529 30 360 1.6 12.9 0.00 0.00 0.00 48 1005.3
20260906010047 30 360 4.8 12.9 0.00 0.00 0.00 46 1005.2
20260906004550 31 360 6.4 14.5 0.00 0.00 0.00 45 1004.9
20260906003050 31 360 9.7 20.9 0.00 0.00 0.00 44 1004.5
20260906001509 31 360 12.9 24.1 0.00 0.00 0.00 44 1004.3
20260906000022 31 360 9.7 19.3 0.00 0.00 0.00 43 1004.4
20260905234550 31 360 9.7 19.3 0.00 0.00 0.00 42 1004.5
20260905233005 32 360 12.9 25.7 0.00 0.00 0.00 40 1004.5
20260905231526 33 360 12.9 25.7 0.00 0.00 0.00 36 1004.3
20260905230039 33 360 16.1 33.8 0.00 0.00 0.00 35 1004.2
20260905224541 33 360 17.7 27.4 0.00 0.00 0.00 36 1004.0
20260905223050 33 360 17.7 33.8 0.00 0.00 0.00 38 1003.9
20260905221509 33 360 11.3 29.0 0.00 0.00 0.00 38 1003.8
20260905220025 33 360 12.9 29.0 0.00 0.00 0.00 40 1003.9
20260905214545 33 360 16.1 33.8 0.00 0.00 0.00 36 1004.2
20260905213101 33 360 16.1 33.8 0.00 0.00 0.00 37 1004.2
20260905211508 33 360 14.5 33.8 0.00 0.00 0.00 40 1004.4